Regional Weather Roundup
Issued by NWS

Home | Current Version | Previous Version | Graphics & Text | Print | Product List | Glossary Off
Versions: 1 2 3 4 5 6 7 8 9 10 11 12 13 14 15 16 17 18 19 20 21 22 23 24 25 26 27 28 29 30 31 32 33 34 35 36 37 38 39 40 41 42 43 44 45 46 47 48 49 50

000
ASUS43 KFSD 211110
RWRSD

WEATHER ROUNDUP FOR SOUTH DAKOTA
NATIONAL WEATHER SERVICE SIOUX FALLS SD
500 AM CST SUN DEC 21 2014

NOTE: "FAIR" INDICATES FEW OR NO CLOUDS BELOW 12,000 FEET WITH NO
SIGNIFICANT WEATHER AND/OR OBSTRUCTIONS TO VISIBILITY.


SDZ001>005-009-010-012>017-211200-
NORTHWEST AND NORTH CENTRAL SOUTH DAKOTA

CITY           SKY/WX    TMP DP  RH WIND       PRES   REMARKS
BUFFALO          N/A     29  21  72 S8        29.53F WCI  21
FAITH            N/A     26  22  84 S15       29.62F WCI  14
MOBRIDGE       CLOUDY    27  24  89 SE9       29.67F WCI  18
$$

SDZ012>016-024>037-041>051-057-063-072>074-211200-
SOUTHWEST AND SOUTH CENTRAL SOUTH DAKOTA

CITY           SKY/WX    TMP DP  RH WIND       PRES   REMARKS
RAPID CTY ARPT CLEAR     23  20  88 CALM      29.63F
PIERRE         MOCLDY    23  22  96 E8        29.70F WCI  14
CUSTER         CLEAR     27  22  81 W8        29.63F WCI  19
ELLSWORTH AFB  CLEAR     26  20  78 W8        29.61F WCI  17
PHILIP         CLEAR     23  20  88 CALM      29.67F
PINE RIDGE     CLEAR     28  22  78 W3        29.69F
SPEARFISH      FAIR      34  19  55 CALM      29.61F
WINNER         CLOUDY    39  27  62 SW13      29.72F
$$

SDZ004>011-016>023-039-040-211200-
NORTHEAST SOUTH DAKOTA

CITY           SKY/WX    TMP DP  RH WIND       PRES   REMARKS
ABERDEEN       CLOUDY    30  29  96 S10       29.78F FOG     WCI  21
WATERTOWN      CLOUDY    29  28  96 S13       29.78F FOG     WCI  19
SISSETON         N/A     30  29  96 S13       29.79F WCI  20
$$

SDZ017-020-022-023-036>040-048>070-211200-
SOUTHEAST SOUTH DAKOTA

CITY           SKY/WX    TMP DP  RH WIND       PRES   REMARKS
SIOUX FALLS    FOG       31  31 100 S13       29.81F VSB 3/4 WCI  21
HURON          CLOUDY    31  30  96 S9        29.79F FOG     WCI  23
CHAMBERLAIN    CLOUDY    25  24  96 E7        29.74F WCI  17
MITCHELL       CLOUDY    32  31  96 S9        29.82F FOG     WCI  24
YANKTON        CLOUDY    32  30  93 S9        29.83F WCI  24
$$

ABBREVIATIONS USED IN REMARKS
   TC - TEMPERATURE IN CELSIUS
  WCI - WIND CHILL INDEX
   HX - HEAT INDEX
  VSB - VISIBILITY



USA.gov is the U.S. government's official web portal to all federal, state and local government web resources and services.